sat.trackr.live / text

‹ back to catalog

STARLINK-35990

NORAD 66792 · 2025-278B

PAYLOAD ACTIVE UNKNOWN

§ Identity

Operator
Country
US
Launch date
2025-12-01
Launch site
AFETR
Launch vehicle
Mass (kg)
RCS (m²)

Purposes: comms

External: N2YO · Heavens-Above · Gunter

§ Orbital elements

Epoch: 2026-09-20T21:07:33.861792Z

Period
94.27 min
Inclination
42.9964°
Eccentricity
0.0001496
Mean motion
15.27586253 rev/d
Perigee alt
482.0 km
Apogee alt
484.1 km
Semi-major
6,861.2 km
B*
4.0662e-4
RAAN
91.8034°
Arg perigee
54.1612°
Mean anomaly
305.9378°
Rev number
4,506

§ Raw data

STARLINK-359901 66792U 25278B   26263.88025303  .00010946  00000+0  40662-3 0  99922 66792  42.9964  91.8034 0001496  54.1612 305.9378 15.27586253 45064

JSON: /api/v1/satellites/66792 · /tle

For live sub-satellite position, see the globe view (requires WebGL).

§ Visibility from observer

Set your observer location to see the next 7 days of passes ≥ 10°. The values pass through the URL so the page stays shareable.

No JS? Fill the form by hand. The geolocation button needs JavaScript.